[[{"header":{"parameterUnit":"m.s-1","parameterCategory":1,"la1":30.2991,"la2":30.254,"lo1":-89.0895,"lo2":-89.0444,"dy":0.0017,"dx":0.0017,"nx":28,"ny":28,"refTime":"2024-04-24T09:00:00:Z","depth":0,"parameterNumber":2,"parameterNumberName":"U-component_of_WINDS"},"data":[0,0,0,0,0,0,0,0,0,0,0,0,0,0,0,0,0,0,0,0,0,0,0,0,0,0,0,0,0,0,0,0,0,0,0,0,0,0,0,0,0,0,0,0,0,0,0,0,0,0,0,0,0,0,0,0,0,0,0.9105,0.9106,0,0.9167,0.9167,0.9168,0.9186,0.9186,0.9185,0.9185,0.9247,0.9249,0.9251,0,0,0,0,0,0,0,0,0,0,0,0,0,0.9001,0.9003,0.9105,0.9106,0.9107,0.9167,0.9167,0.9168,0.9186,0.9185,0.9185,0.9185,0.9247,0.9249,0.9251,0,0,0,0,0,0,0,0,0,0,0,0,0,0.9052,0.9003,0.9105,0.9123,0.9125,0.9166,0.9167,0.9169,0.9186,0.9185,0.9185,0.9185,0.9246,0.9249,0.9252,0.928,0,0,0.9261,0.9262,0,0,0,0,0,0,0,0,0.905,0.9056,0.9119,0.9121,0.9124,0.9168,0.9154,0.9206,0.9186,0.9163,0.9185,0.9184,0.9221,0.9226,0.9239,0.9283,0.9285,0.9261,0.9263,0.9264,0.9265,0,0,0,0,0,0,0,0.9046,0.9054,0.9129,0.912,0.9123,0.9127,0.9134,0.9164,0.9194,0.9165,0.9166,0.9173,0.9222,0.9236,0.924,0.9286,0.9261,0.9263,0.9265,0.9266,0.9355,0.9355,0,0,0,0,0,0,0.9039,0.9051,0.9127,0.9131,0.9085,0.9129,0.9137,0.9154,0.9194,0.9199,0.9174,0.9174,0.9231,0.9237,0.9243,0.9277,0.9264,0.9267,0.9268,0.9354,0.9355,0.9356,0,0,0,0,0,0,0.9037,0.9046,0.9125,0.9091,0.9102,0.9131,0.9151,0.9156,0.9169,0.92,0.9206,0.9182,0.9231,0.9239,0.927,0.928,0.9268,0.9271,0.9354,0.9354,0.9355,0.9347,0,0,0,0,0,0,0.9034,0.9045,0.9057,0.9092,0.9103,0.9152,0.9152,0.9157,0.9175,0.9175,0.921,0.9215,0.9231,0.9266,0.9273,0.9284,0.9273,0.9353,0.9354,0.9355,0.9347,0.9348,0.9348,0,0,0,0,0,0.903,0.9052,0.9057,0.9067,0.9119,0.9152,0.9159,0.9178,0.9175,0.9187,0.9206,0.9214,0.9277,0.9269,0.9277,0.9289,0.9352,0.9354,0.9355,0.9346,0.9348,0.9348,0,0,0,0,0,0,0.9018,0.9057,0.9063,0.9097,0.9121,0.9155,0.917,0.9179,0.9204,0.9204,0.9225,0.9233,0.9263,0.9279,0.9268,0.9317,0.9315,0.9318,0.9306,0.9307,0.9308,0.9303,0.9276,0,0,0,0,0,0.9019,0.9044,0.9077,0.9103,0.9115,0.9141,0.9156,0.9168,0.9194,0.9204,0.9226,0.9251,0.9276,0.9293,0.9318,0.9349,0.9356,0.9361,0.9362,0.9363,0.9365,0.9381,0.9384,0.936,0.936,0.936,0,0,0.9022,0.9046,0.9061,0.9101,0.9122,0.9146,0.9149,0.9175,0.9193,0.9208,0.9239,0.9256,0.9285,0.9316,0.9331,0.933,0.9373,0.9364,0.9364,0.9367,0.9383,0.9385,0.9387,0.9361,0.9361,0.936,0,0,0.9039,0.9061,0.9085,0.9105,0.9135,0.9152,0.9157,0.919,0.9202,0.9233,0.9244,0.9266,0.931,0.9329,0.9345,0.9368,0.9375,0.9376,0.938,0.9396,0.9398,0.9399,0.9407,0.9409,0.9378,0.9378,0.9378,0,0.9039,0.9077,0.9096,0.9121,0.9138,0.9153,0.9176,0.9195,0.9232,0.9243,0.9242,0.9296,0.9316,0.9352,0.9357,0.937,0.9376,0.9372,0.9396,0.9398,0.94,0.9407,0.941,0.9377,0.9378,0.9378,0.9378,0,0.9074,0.91,0.9115,0.915,0.9169,0.9193,0.9216,0.9232,0.9242,0.9259,0.929,0.9315,0.9344,0.9354,0.9364,0.939,0.9389,0.9392,0.939,0.9402,0.9409,0.9412,0.9377,0.9377,0.9377,0.9377,0,0,0.9086,0.913,0.9136,0.9151,0.9185,0.9205,0.923,0.9259,0.9272,0.9297,0.9317,0.9353,0.9355,0.9373,0.9386,0.94,0.9415,0.94,0.9401,0.9402,0.9444,0.9441,0.9444,0.942,0.9421,0.9421,0.9441,0,0.9107,0.9151,0.9169,0.9205,0.9228,0.9242,0.9263,0.9285,0.9301,0.9323,0.934,0.9364,0.9366,0.9377,0.9391,0.941,0.9424,0.9409,0.9438,0.9439,0.943,0.9448,0.9446,0.9464,0.9444,0.9445,0.9445,0,0.9137,0.9162,0.92,0.923,0.9241,0.9259,0.9287,0.9307,0.9333,0.9343,0.9362,0.9374,0.9399,0.9395,0.943,0.9419,0.9432,0.9443,0.9444,0.9447,0.9443,0.9451,0.947,0.9472,0.945,0.945,0.9449,0,0.9141,0.9184,0.9212,0.9225,0.9261,0.9273,0.9289,0.9314,0.933,0.9353,0.9364,0.939,0.9404,0.9424,0.9442,0.9438,0.9474,0.9473,0.9483,0.9483,0.949,0.9489,0.9511,0.9499,0.9499,0.9499,0.9499,0,0.9162,0.9185,0.9214,0.9231,0.9256,0.9276,0.93,0.9316,0.9338,0.9358,0.9371,0.939,0.9412,0.9433,0.9448,0.9473,0.948,0.9488,0.9492,0.9487,0.9486,0.9496,0.9495,0.95,0.95,0.95,0.9499,0,0.9171,0.9191,0.9222,0.9253,0.9262,0.9279,0.9305,0.9322,0.9338,0.9363,0.937,0.9394,0.942,0.9439,0.9473,0.9482,0.9509,0.9513,0.95,0.9502,0.9511,0.951,0.9539,0.9543,0.9529,0.953,0.953,0,0.9183,0.92,0.9233,0.9247,0.9263,0.9286,0.9302,0.9321,0.9338,0.9367,0.938,0.9406,0.9428,0.9468,0.9489,0.9514,0.9518,0.9527,0.9522,0.9516,0.9517,0.9516,0.9517,0.9527,0.9527,0.9527,0.9527,0,0.9202,0.921,0.9233,0.926,0.9278,0.93,0.9322,0.9333,0.9356,0.9373,0.9399,0.9416,0.945,0.9475,0.9502,0.9517,0.9526,0.9528,0.9532,0.9527,0.9519,0.9523,0.9501,0.9528,0.9528,0.9528,0.9528,0.9527,0.9212,0.9227,0.9253,0.9277,0.9296,0.9315,0.9332,0.935,0.9372,0.9401,0.9411,0.9437,0.9461,0.9498,0.9514,0.9534,0.9535,0.954,0.9541,0.9542,0.9541,0.9516,0.9539,0.9539,0.9539,0.9539,0.9539,0,0.923,0.9247,0.927,0.93,0.9319,0.9325,0.9349,0.9365,0.9388,0.9409,0.9431,0.946,0.9484,0.9506,0.9532,0.9544,0.9548,0.955,0.9549,0.9552,0.954,0.9534,0.9546,0.9546,0.9546,0.9546,0.9546,0.9546,0.9242,0.9269,0.9281,0.9316,0.9333,0.9359,0.9372,0.939,0.9407,0.9439,0.9459,0.9474,0.9495,0.9522,0.9545,0.9551,0.9559,0.9559,0.9566,0.9554,0.9553,0.9552,0.9547,0.9561,0.9561,0.9577,0.9577,0.9577]},{"header":{"parameterUnit":"m.s-1","parameterCategory":1,"la1":30.2991,"la2":30.254,"lo1":-89.0895,"lo2":-89.0444,"dy":0.0017,"dx":0.0017,"nx":28,"ny":28,"refTime":"2024-04-24T09:00:00:Z","depth":0,"parameterNumber":3,"parameterNumberName":"V-component_of_WINDS"},"data":[0,0,0,0,0,0,0,0,0,0,0,0,0,0,0,0,0,0,0,0,0,0,0,0,0,0,0,0,0,0,0,0,0,0,0,0,0,0,0,0,0,0,0,0,0,0,0,0,0,0,0,0,0,0,0,0,0,0,3.8283,3.8283,0,3.8293,3.8293,3.8293,3.8235,3.8233,3.8231,3.823,3.8239,3.824,3.8242,0,0,0,0,0,0,0,0,0,0,0,0,0,3.8212,3.8214,3.8283,3.8283,3.8283,3.8293,3.8293,3.8293,3.8235,3.8233,3.8231,3.8229,3.8238,3.824,3.8242,0,0,0,0,0,0,0,0,0,0,0,0,0,3.8234,3.8214,3.8283,3.8255,3.8253,3.8293,3.8293,3.8293,3.8235,3.8233,3.823,3.8228,3.8237,3.824,3.8243,3.8309,0,0,3.8251,3.8252,0,0,0,0,0,0,0,0,3.8233,3.8237,3.8259,3.8257,3.8255,3.826,3.8271,3.8298,3.8236,3.8242,3.823,3.8227,3.8248,3.8249,3.8257,3.8309,3.831,3.8251,3.8253,3.8254,3.8255,0,0,0,0,0,0,0,3.8232,3.8236,3.8287,3.826,3.8257,3.8242,3.8242,3.8276,3.8259,3.8241,3.8237,3.8239,3.8246,3.8254,3.8256,3.831,3.8251,3.8253,3.8255,3.8256,3.8416,3.8418,0,0,0,0,0,0,3.8234,3.8235,3.8286,3.8287,3.8238,3.8245,3.8246,3.8261,3.8258,3.8255,3.8241,3.8236,3.8251,3.8253,3.8257,3.8332,3.8254,3.8256,3.8258,3.8413,3.8416,3.8419,0,0,0,0,0,0,3.8233,3.8239,3.8286,3.826,3.8265,3.8249,3.8266,3.8262,3.827,3.8258,3.8255,3.8253,3.8249,3.8253,3.8296,3.8332,3.8258,3.826,3.841,3.8414,3.8418,3.8485,0,0,0,0,0,0,3.8231,3.8239,3.8265,3.8261,3.8267,3.8326,3.8269,3.8264,3.8275,3.8269,3.8268,3.8266,3.8247,3.8292,3.8299,3.8334,3.8262,3.8407,3.8412,3.8416,3.848,3.8491,3.8501,0,0,0,0,0,3.8229,3.8284,3.8266,3.8273,3.8298,3.8328,3.8331,3.8309,3.8278,3.8303,3.8295,3.8266,3.8327,3.8297,3.8304,3.8341,3.8404,3.841,3.8416,3.8475,3.8489,3.85,0,0,0,0,0,0,3.8292,3.8283,3.8263,3.8319,3.8325,3.8318,3.8349,3.8325,3.834,3.8333,3.8305,3.8306,3.8353,3.8351,3.8318,3.8404,3.836,3.8368,3.8403,3.8416,3.8426,3.8425,3.8264,0,0,0,0,0,3.8312,3.8338,3.8328,3.8378,3.8382,3.8366,3.8378,3.836,3.8365,3.8367,3.8362,3.8368,3.8388,3.8402,3.842,3.848,3.8478,3.8508,3.8519,3.8527,3.8534,3.8563,3.8576,3.8438,3.8438,3.8438,0,0,3.8355,3.8353,3.8371,3.8391,3.8393,3.8419,3.8368,3.8398,3.8417,3.8372,3.8412,3.8409,3.8413,3.8464,3.8486,3.8464,3.8571,3.8535,3.8542,3.8543,3.857,3.8583,3.8595,3.8442,3.8442,3.8441,0,0,3.8445,3.8447,3.8487,3.8491,3.8495,3.8483,3.8493,3.8491,3.8486,3.8526,3.8492,3.8514,3.8551,3.8554,3.8561,3.8652,3.8624,3.8659,3.8713,3.8741,3.8752,3.8762,3.8792,3.8803,3.8665,3.8665,3.8665,0,3.8497,3.8535,3.8511,3.8543,3.8553,3.8513,3.8553,3.8558,3.8568,3.8575,3.855,3.8593,3.8594,3.8644,3.8666,3.8674,3.8683,3.8658,3.8753,3.8762,3.877,3.8799,3.8811,3.8669,3.8669,3.8668,3.8668,0,3.8597,3.8625,3.8657,3.8667,3.868,3.8716,3.8697,3.8713,3.8695,3.8686,3.8726,3.8725,3.8741,3.8752,3.8735,3.88,3.8786,3.8758,3.8713,3.8788,3.8814,3.8825,3.8675,3.8674,3.8672,3.8671,0,0,3.8727,3.8723,3.8735,3.8738,3.874,3.876,3.8794,3.881,3.8823,3.8832,3.8858,3.889,3.8863,3.8871,3.8853,3.8879,3.8948,3.8847,3.8847,3.8864,3.9018,3.9037,3.9051,3.8931,3.8933,3.8935,3.9017,0,3.8813,3.8871,3.885,3.8908,3.8932,3.8894,3.8924,3.8927,3.892,3.8938,3.8929,3.8951,3.8916,3.892,3.8944,3.8935,3.8978,3.8929,3.8954,3.8955,3.8952,3.9065,3.9086,3.9163,3.9027,3.9029,3.903,0,3.8921,3.8933,3.8994,3.899,3.8999,3.9025,3.9037,3.9056,3.9059,3.9052,3.906,3.9037,3.9069,3.9026,3.9068,3.9035,3.9044,3.9042,3.9044,3.9044,3.8996,3.9065,3.9188,3.9198,3.9046,3.9045,3.9044,0,3.9007,3.9039,3.9078,3.9082,3.9079,3.9098,3.9098,3.9098,3.9109,3.912,3.9126,3.9141,3.9148,3.916,3.9141,3.9111,3.9186,3.9141,3.9179,3.9179,3.9195,3.9194,3.9318,3.9204,3.9204,3.9204,3.9204,0,3.9104,3.9142,3.9116,3.9141,3.9181,3.9157,3.9198,3.9194,3.9194,3.9216,3.9186,3.9207,3.9182,3.92,3.9186,3.9222,3.9227,3.9221,3.9216,3.9222,3.9223,3.9226,3.922,3.9207,3.9206,3.9206,3.9205,0,3.9206,3.9191,3.9231,3.9224,3.9223,3.9254,3.9248,3.9269,3.9259,3.9287,3.9293,3.9277,3.9297,3.928,3.93,3.929,3.9338,3.9327,3.9337,3.9333,3.9371,3.9366,3.95,3.9515,3.9394,3.9395,3.9396,0,3.9269,3.9297,3.9293,3.9305,3.9306,3.9327,3.9337,3.9314,3.9326,3.9331,3.9352,3.9369,3.9382,3.9416,3.9406,3.9421,3.9408,3.9454,3.941,3.9415,3.9406,3.9404,3.9406,3.9462,3.9464,3.9465,3.9466,0,3.938,3.937,3.9386,3.9399,3.9412,3.9421,3.9427,3.9439,3.9416,3.9431,3.9451,3.9461,3.948,3.9498,3.9509,3.9508,3.9483,3.948,3.9489,3.9495,3.9498,3.9495,3.9359,3.9477,3.9476,3.9475,3.9474,3.9474,3.9462,3.9484,3.9485,3.9503,3.9505,3.9512,3.9531,3.9523,3.954,3.9553,3.9539,3.9563,3.9564,3.9577,3.9579,3.9597,3.9578,3.9592,3.9595,3.9598,3.9602,3.9497,3.9599,3.9599,3.9599,3.9598,3.9598,0,3.957,3.9568,3.9585,3.9594,3.9608,3.9584,3.959,3.9603,3.9624,3.9627,3.964,3.9663,3.9679,3.9671,3.9685,3.9701,3.9689,3.9705,3.9702,3.9702,3.962,3.9609,3.9714,3.9714,3.9714,3.9714,3.9714,3.9713,3.9627,3.9663,3.9653,3.969,3.9687,3.971,3.9715,3.9721,3.9723,3.9749,3.9763,3.9757,3.9755,3.9768,3.9782,3.9779,3.9785,3.9804,3.9797,3.972,3.9708,3.9697,3.9687,3.9806,3.9806,3.9878,3.9878,3.9879]}]]